Regional Weather Roundup
Issued by NWS Upton, NY

Home | Current Version | Previous Version | Text Only | Print | Product List | Glossary On
Versions: 1 2 3 4 5 6 7 8 9 10 11 12 13 14 15 16 17 18 19 20 21 22 23 24 25 26 27 28 29 30 31 32 33 34 35 36 37 38 39 40 41 42 43 44 45 46 47 48
000
ASUS41 KOKX 250405
RWROKX

REGIONAL WEATHER ROUNDUP
NATIONAL WEATHER SERVICE NEW YORK NY
1100 PM EST SAT JAN 24 2015

NOTE: "FAIR" INDICATES FEW OR NO CLOUDS BELOW 12,000 FEET WITH NO
SIGNIFICANT WEATHER AND/OR OBSTRUCTIONS TO VISIBILITY.

NYZ071-072-176-178-NJZ106-104-250500-
NEW YORK CITY METRO AREA


CITY           SKY/WX    TMP DP  RH WIND       PRES   REMARKS
CENTRAL PARK   MOCLDY    36  23  59 NW8       29.49R WCI  30
LAGUARDIA APRT CLOUDY    35  25  66 NW15G21   29.48R WCI  25
KENNEDY INTL   MOCLDY    36  24  62 NW13G24   29.48R WCI  27
NEWARK/LIBERTY MOCLDY    35  25  66 W9        29.49R WCI  28
BRNX BOT. GARD   N/A    N/A N/A N/A W8        29.47R
TETERBORO      MOCLDY    36  23  59 W7        29.47R WCI  30
$$

NYZ177-179-078>081-250500-
LONG ISLAND NEW YORK

CITY           SKY/WX    TMP DP  RH WIND       PRES   REMARKS
FARMINGDALE    MOCLDY    35  24  64 NW14G22   29.45R WCI  26
ISLIP          PTCLDY    34  27  75 W10       29.42R WCI  26
SHIRLEY        CLEAR     33  30  88 W7        29.44R WCI  27
WESTHAMPTON    CLEAR     33  29  85 W10       29.42R WCI  25
MONTAUK POINT    N/A     37  27  67 W13G22    29.38R WCI  29
$$

NYZ052-065-067-250500-
HUDSON VALLEY

CITY           SKY/WX    TMP DP  RH WIND       PRES   REMARKS
WHITE PLAINS   MOCLDY    33  23  66 W14G28    29.42R WCI  23
NEWBURGH       MOCLDY    32  25  74 NW16G23   29.44  WCI  21
MONTGOMERY     CLOUDY    34  24  67 W8        29.44R WCI  27
POUGHKEEPSIE   CLOUDY    31  26  82 W3        29.44R
ALBANY         CLOUDY    31  24  75 W13       29.41S WCI  21
$$

NJZ001-105-106-008-010-013-015-019>022-104-250500-
NEW JERSEY

CITY           SKY/WX    TMP DP  RH WIND       PRES   REMARKS
NEWARK/LIBERTY MOCLDY    35  25  66 W9        29.49R WCI  28
TETERBORO      MOCLDY    36  23  59 W7        29.47R WCI  30
CALDWELL       CLOUDY    35  24  64 NW15G24   29.48R WCI  25
MORRISTOWN     MOCLDY    37  25  60 W8        29.49R WCI  31
SOMERVILLE     CLOUDY    36  26  67 W3        29.49R
SUSSEX         LGT RAIN  34  23  64 VRB5      29.48R WCI  30
ANDOVER          N/A     33  24  69 VRB3      29.48R
TRENTON        CLOUDY    36  24  62 W9        29.51R WCI  29
MILLVILLE      CLEAR    N/A N/A N/A W9        29.58R
ATLANTIC CITY  CLEAR     34  27  75 W10       29.56R WCI  26
WRIGHTSTOWN    MOCLDY    35  26  70 W13G18    29.51R WCI  26
TOMS RIVER     CLEAR     34  28  80 W3        29.52R
BELMAR         NOT AVBL
$$

PAZ047>061-062-071-250500-
EASTERN PENNSYLVANIA

CITY           SKY/WX    TMP DP  RH WIND       PRES   REMARKS
PHILADELPHIA   PTCLDY    36  24  62 W15       29.58R WCI  27
ALLENTOWN      CLOUDY    35  24  64 W12G23    29.52R WCI  27
SCRANTON       CLOUDY    33  24  69 W12       29.48R WCI  24
$$

CTZ002-004>006-009-010-012-RIZ004-006-007-MAZ004-011-015-250500-
SOUTHERN NEW ENGLAND
 IN CT

CITY           SKY/WX    TMP DP  RH WIND       PRES   REMARKS
BRADLEY INTL   CLOUDY    32  24  72 NW12G21   29.37R WCI  23
HARTFORD       CLOUDY    32  24  72 VRB6      29.39R WCI  26
DANBURY        MOCLDY    32  22  66 W5        29.43R WCI  27
WTRBRY/OXFORD  MOCLDY    30  18  59 NW5       29.39R WCI  25
BRIDGEPORT     CLEAR     33  29  85 W9        29.42R WCI  25
MERIDEN        MOCLDY    33  22  63 N7        29.40R WCI  27
NEW HAVEN      PTCLDY    34  25  69 NW8       29.40R WCI  27
CHESTER        FAIR      32  27  80 NW10G20   29.37R WCI  24
GROTON         PTCLDY    32  26  78 W12       29.36R WCI  23
WILLIMANTIC    CLOUDY    32  24  72 NW14G22   29.35R WCI  22

 IN RI

CITY           SKY/WX    TMP DP  RH WIND       PRES   REMARKS
PROVIDENCE     PTCLDY    33  27  78 W9        29.31R WCI  25
BLOCK ISLAND   CLEAR     36  27  69 W12G21    29.34R WCI  27
WESTERLY       PTCLDY    33  28  81 W7        29.35R WCI  27

 IN MA

CITY           SKY/WX    TMP DP  RH WIND       PRES   REMARKS
BOSTON         PTCLDY    32  27  81 W10       29.27R WCI  24
WORCESTER      MIX PCPN  28  23  81 W21G32    29.26R WCI  15
WESTFIELD      CLOUDY    32  24  72 NW20G28   29.35S WCI  20
PROVINCETOWN   CLOUDY    36  30  80 NW20G26   29.25R WCI  25
NANTUCKET      CLOUDY    34  31  88 NW18G28   29.27R WCI  23
$$

ANZ330-335-338-340-345-350-353-355-250500-
COASTAL MARINE OBSERVATIONS


STATION/POSITION TIME  SKY/WX   TEMP    WIND        PRES    VSBY  WAVE
                                AIR SEA DIR/SP/G                  HT/PER
                 (UTC)          (F)     (DEG/KT/KT) (MB)    (MI)  (FT/S)
NY HARB ENTRANCE 0400            39 42  290/ 21/ 29  997.3          6/11
4S FIRE IS       0400               38                N/A           6/11
20S FIRE ISLAND  0300               41               996.1          8/11
23SW MTP         0400                                 N/A          10/12
HUDSON CANYON    NOT AVBL
EXECUTION ROCKS  0400            36 35  290/ 16/ 25   N/A
WESTERN LI SOUND 0400            36     290/ 12/ 16   N/A           1/ 2
CENTRAL LI SOUND 0300            36 37  290/ 16/ 19   N/A           2/ 4
EASTERN LI SOUND NOT AVBL
ROBBINS REEF     0400            36     300/ 12/ 14  997.4
$$


>>>>>>>>>>>>>>>>>>>>>>>>>>>> KEY <<<<<<<<<<<<<<<<<<<<<<<<<<<
>                                                          <
>     SKY/WX - SKY CONDITION/PRESENT WEATHER               <
>     TMP    - TEMPERATURE IN FAHRENHEIT                   <
>     DP     - DEWPOINT IN FAHRENHEIT                      <
>     RH     - RELATIVE HUMIDITY IN PERCENT                <
>     WIND   - DIRECTION AND SPEED IN MPH                  <
>     PRES   - MEAN SEA LEVEL PRESSURE IN INCHES OF HG     <
>     WCI    - WIND CHILL INDEX                            <
>     VSB    - VISIBILITY IN MILES                         <
>     HX     - HEAT INDEX                                  <
>     TC     - TEMPERATURE IN CELSIUS                      <
>     VRB    - VARIABLE WIND DIRECTION                     <
>                                                          <
>>>>>>>>>>>>>>>>>>>>>>>>>>>> KEY <<<<<<<<<<<<<<<<<<<<<<<<<<<




USA.gov is the U.S. government's official web portal to all federal, state and local government web resources and services.